Location: ????????
(55.7667°N, 37.4833°E)
Time: 08:02:19
(UTC+00:00)

IDEFIX/ARIANE 42P - Pass Details

Date: 19 May 2025
Orbit: 781 x 797 km, 98.6° (Epoch: 24 June)

Event Time Altitude Azimuth Distance (km) Brightness Sun altitude
Rises 23:07:15 0° 17° (NNE) 3,311 7.9 -11.3°
Reaches altitude 10° 23:09:38 10° 21° (NNE) 2,379 6.6 -11.2°
Maximum altitude 23:14:50 61° 102° (ESE) 904 2.9 -10.9°
Enters shadow 23:19:50 11° 183° (S) 2,295 4.4 -10.5°
